{"data":{"norad_id":54120,"intl_designator":"2022-138H","name":"ONEWEB-0502","alt_names":[],"object_type":"PAYLOAD","status":"ACTIVE","operator":null,"country":"UK","launch_date":"2022-10-22","launch_site_code":"SRILR","launch_vehicle":null,"mission":null,"orbit_class":"UNKNOWN","rcs_meters":null,"size_class":null,"mass_kg":null,"dimensions":null,"purposes":["comms"],"wikipedia_slug":null,"has_3d_model":false,"image_url":null,"decayed_at":null,"tle_current":{"epoch":"2026-09-18T07:56:20.010624Z","epoch_age_seconds":213267,"freshness":"STALE","line1":"1 54120U 22138H   26261.33078716  .00000033  00000+0  49348-4 0  9997","line2":"2 54120  87.9115 286.4033 0002090  86.5780 273.5592 13.19726677189118","mean_motion":13.19726677,"eccentricity":0.000209,"inclination_deg":87.9115,"raan_deg":286.4033,"arg_perigee_deg":86.578,"mean_anomaly_deg":273.5592,"bstar":4.9348e-5,"rev_number":18911,"period_min":109.11350244684,"perigee_km":1184.18328893,"apogee_km":1187.3449996083,"semimajor_km":7563.9011442691,"source":"CELESTRAK","updated_at":"2026-09-20T09:00:44.716345Z"}}}